SCP
1 1 0 0 0 0 0 -0 0 0 0 0 0 0 0 0 0 0 0 0 0 0 0 0 0 0 0 0 0 0 0 0 0 0 0 0 0 0 0 0 0 0 0 0 0 0 0 0 0
0 0 0 0 0 0 0 0 0 0 0 0 0 0 0 0 0 0 0 0 0 0 0 0 0 0 0 0 0 0 0 0 0 0 0 0 0 0 0 0 0 0 0 0 0 0 0 0 0
0 0 0 0 0 0 0 0 0 0 0 0 0 0 0 0 0 0 0 0 0 0 0 0 0 0 0 0 0 0 0 0 0 0 0 0 0 0 0 0 0 0 0 0 0 0 0 0 0
0 0 0 0 0 0 0 0 0 0 0 0 0 0 0 0 0 0 0 0 0 0 0 0 0 0 0 0 0 0 0 0 0 0 0 0 0 0 0 0 0 0 0 0 0 0 0 0 0
0 0 0 0 0 0 0 0 0 0 0 0 0 0 0 0 0 0 0 0 0 0 0 0 0 0 0 0 0 0 0 0 0 0 0 0 0 0 0 0 0 0 0 0 0 0 0 0 0
0 0 0 0 0 0 0 0 0 0 0 0 0 0 0 0 0 0 0 0 0 0 0 0 0 0 0 0 0 0 0 0 0 0 0 0 0 0 0 0 0 0 0 0 0 0 0 0 0
0 0 0 0 0 0 0 0 0 0 0 0 0 0 0 0 0 0 0 0 0 0 0 0 0 0 0 0 0 0 0 0 0 0 0 0 0 0 0 0 0 0 0 0 0 0 0 0 0
0 0 0 0 0 0 0 0 0 0 0 0 0 0 0 0 0 0 0 0 0 0 0 0 0 0 0 0 0 0 0 0 0 0 0 0 0 0 0 0 0 0 0 0 0 0 0 0 0
0 0 0 0 0 0 0 0 0 0 0 0 0 0 0 0 0 0 0 0 0 0 0 0 0 0 0 0 0 0 0 0 0 0 0 0 0 0 0 0 0 0 0 0 0 0 0 0 0
0 0 0 0 0 0 0 0 0 0 0 0 0 0 0 1 1 1 0 0 1 1 1 0 0 0 0 0 0 0 0 1 1 0 0 0 0 0 0 0 0 0 0 0 0 0 0 0 0
0 0 0 0 0 0 0 0 0 0 0 0 0 0 1 1 1 1 0 1 2 3 1 0 0 0 0 0 0 1 1 1 1 1 1 0 0 0 0 0 0 0 0 0 0 0 0 0 0
0 0 0 0 0 0 0 0 0 0 0 0 0 1 1 1 1 0 0 1 1 2 1 0 1 0 0 0 0 1 1 1 1 1 1 1 0 0 0 0 0 0 0 0 0 0 0 0 0
0 0 0 0 0 0 0 0 0 0 0 0 1 1 1 1 0 0 0 0 0 0 0 0 1 1 1 1 1 1 1 1 1 1 1 1 0 0 0 0 0 0 0 0 0 0 0 0 0
0 0 0 0 0 0 0 0 0 0 0 1 1 1 1 1 0 0 0 0 0 0 0 0 1 1 1 1 2 3 2 1 1 1 1 1 1 0 0 0 0 0 0 0 0 0 0 0 0
0 0 0 0 0 0 0 0 0 0 0 1 1 1 1 0 0 0 0 0 0 0 0 0 1 1 1 1 3 5 3 1 1 1 1 1 1 0 0 0 0 0 0 0 0 0 0 0 0
0 0 0 0 0 0 0 0 0 0 0 0 0 0 0 0 0 0 0 0 0 0 0 0 1 1 1 1 3 3 3 1 1 1 1 1 1 1 0 0 0 0 0 0 0 0 0 0 0
0 0 0 0 0 0 0 0 0 0 0 0 0 0 0 0 0 0 0 0 0 0 0 0 0 1 1 2 2 2 2 2 1 1 1 1 1 1 1 0 0 0 0 0 0 0 0 0 0
0 0 0 0 0 0 0 0 0 0 0 0 0 0 0 0 0 0 0 0 0 0 0 0 0 1 1 2 2 2 2 2 2 2 2 1 1 1 1 1 0 0 0 0 0 0 0 0 0
0 0 0 0 0 0 0 0 0 0 0 0 0 0 0 0 0 0 0 0 0 0 0 0 0 0 1 1 2 2 2 2 2 2 2 2 1 1 1 1 1 0 0 0 0 0 0 0 0
0 0 0 0 0 0 0 0 0 0 0 0 0 0 0 0 0 0 0 0 0 0 0 0 0 0 0 1 1 2 2 2 2 2 2 2 2 2 1 1 1 1 0 0 0 0 0 0 0
0 0 0 0 0 0 0 0 0 0 0 0 0 0 0 0 0 0 0 0 0 0 0 0 0 0 0 0 1 1 1 2 2 2 2 2 2 2 2 1 1 1 1 0 0 0 0 0 0
0 0 0 0 0 0 0 0 0 0 0 0 0 0 0 0 0 0 0 0 0 0 0 0 0 0 0 0 0 1 1 1 1 1 2 2 2 2 2 1 1 1 1 0 0 0 0 0 0
0 0 0 0 0 0 0 0 0 0 0 0 0 0 0 0 0 0 0 0 0 0 0 0 0 0 0 0 0 0 1 1 1 1 1 1 1 1 1 1 1 1 1 0 0 0 0 0 0
0 0 0 0 0 0 0 0 0 0 0 0 0 0 0 0 0 0 0 0 0 0 0 0 0 0 0 0 0 0 0 1 1 1 1 1 1 1 1 1 1 1 0 0 0 0 0 0 0
0 0 0 0 0 0 0 0 0 0 0 0 0 0 0 0 0 0 0 0 0 0 0 0 0 0 0 0 0 0 0 1 1 1 1 1 1 1 1 1 1 1 0 0 0 0 0 0 0
0 0 0 0 0 0 0 0 0 0 0 0 0 0 0 0 0 0 0 0 0 0 0 0 0 0 0 0 0 0 0 1 1 1 1 1 1 1 1 1 1 0 0 0 0 0 0 0 0
-0 0 0 0 0 0 0 0 0 0 0 0 0 0 0 0 0 0 0 0 0 0 0 0 0 0 0 0 0 0 0 0 0 0 1 1 1 1 0 0 0 0 0 0 0 0 0 0 0
-0 -0 0 0 0 0 0 0 0 0 0 0 0 0 0 0 0 0 0 0 0 0 0 0 0 0 0 0 0 0 0 0 0 0 0 0 0 0 0 0 0 0 0 0 0 0 0 0 0
-0 -0 -0 0 0 0 0 0 0 0 0 0 0 0 0 0 0 0 0 0 0 0 0 0 0 0 0 0 0 0 0 0 0 0 0 0 0 0 0 0 0 0 0 0 0 0 0 0 0
-0 -0 -0 -0 -0 0 0 0 0 0 0 0 0 0 0 0 0 0 0 0 0 0 0 0 0 0 0 0 0 0 0 0 0 0 0 0 0 0 0 0 0 0 0 0 0 0 0 0 0
Wind_Speed
2 3 3 3 6 7 3 3 1 2 4 2 3 5 6 3 1 1 1 8 10 10 7 9 12 12 11 11 11 10 11 11 11 11 11 11 11 11 11 10 10 9 8 8 7 8 8 8 8
1 3 3 5 7 4 2 3 1 2 4 3 4 5 5 4 3 5 4 6 11 10 7 8 13 12 11 11 11 10 10 10 10 10 10 10 10 10 10 10 9 9 8 8 7 7 7 8 8
2 2 4 5 5 3 1 1 0 2 2 1 4 4 4 2 5 4 5 9 10 9 7 8 13 12 11 11 10 10 10 10 9 9 9 9 9 9 9 9 8 8 7 7 7 6 6 7 7
3 4 5 6 4 1 2 2 1 4 1 4 4 4 4 2 5 6 10 11 11 8 7 8 14 12 11 11 10 10 10 9 9 9 8 8 8 8 8 7 7 7 6 6 6 6 6 6 6
4 5 7 5 4 4 2 3 2 3 2 3 3 4 3 4 6 11 12 11 10 8 7 8 14 13 12 11 10 10 9 9 9 8 8 7 7 7 7 6 6 5 5 5 4 4 5 5 5
4 5 6 3 6 6 4 4 1 3 3 3 3 3 2 1 6 10 10 9 8 9 7 7 14 14 13 12 11 10 10 9 9 8 7 6 6 6 6 5 5 4 4 4 4 3 4 4 4
4 5 4 1 4 6 7 6 3 3 3 2 4 4 1 2 4 8 8 7 6 6 6 6 7 10 13 13 12 11 11 10 9 8 7 6 6 6 6 5 4 3 3 2 3 3 4 4 4
4 5 4 2 2 4 7 5 3 3 2 3 3 5 4 5 5 6 6 5 5 5 5 5 5 5 6 7 12 12 12 11 10 10 8 7 6 6 6 5 4 3 2 2 2 3 3 4 4
4 6 2 1 1 2 5 5 7 3 4 3 2 1 3 10 9 7 5 4 4 6 4 4 5 5 5 5 9 11 12 12 11 9 10 7 3 2 3 4 5 4 3 2 1 1 2 4 5
5 4 2 2 2 1 3 5 7 7 8 7 6 7 7 10 8 7 5 6 7 8 6 5 5 5 4 5 4 4 4 5 5 4 5 4 3 3 3 3 6 5 4 3 2 0 3 4 3
3 3 2 1 1 1 3 6 9 7 8 7 6 5 7 7 4 1 1 3 5 5 6 6 5 5 4 3 3 2 2 3 4 5 5 4 3 2 2 1 2 2 2 0 2 2 2 2 1
3 1 1 2 2 4 4 5 9 13 8 8 8 10 11 10 8 7 7 5 4 3 4 5 7 6 5 4 3 3 3 3 3 4 5 4 3 3 3 2 2 1 1 1 1 0 0 0 0
3 2 3 5 7 8 12 11 9 14 12 14 18 19 16 13 11 10 9 10 8 6 5 4 6 7 6 5 4 4 4 4 4 4 5 6 4 4 4 3 3 3 2 2 2 2 2 2 2
2 5 5 7 7 9 15 13 10 12 12 17 19 17 14 14 13 12 13 12 11 10 9 6 4 5 6 6 6 5 5 5 4 5 6 7 5 5 4 4 4 4 3 3 3 3 2 2 2
2 5 7 8 6 3 9 15 14 11 12 17 17 15 14 13 13 12 11 10 10 9 9 8 5 3 4 7 8 6 5 5 6 6 6 8 7 6 5 4 4 4 4 4 3 2 2 2 2
5 5 5 6 8 6 11 10 13 11 13 16 14 13 13 12 12 11 11 10 10 10 10 10 8 6 4 5 6 6 5 6 6 6 6 9 9 8 6 5 5 4 4 4 3 3 2 2 2
7 4 3 6 10 7 10 9 10 11 14 14 13 11 11 11 12 11 11 10 10 10 10 10 10 9 7 5 5 6 6 7 6 6 6 8 10 9 7 6 5 4 4 4 4 3 3 3 3
2 2 2 4 6 11 13 10 10 11 13 12 11 11 11 11 12 11 10 9 9 9 9 9 9 10 9 5 3 4 5 6 6 6 7 8 7 8 7 5 5 4 4 4 4 3 3 3 3
2 3 3 3 4 9 11 10 8 10 13 13 13 12 12 10 9 9 9 9 9 10 10 9 9 9 8 5 4 3 4 4 5 6 7 7 7 7 7 5 4 4 5 5 5 3 3 2 2
4 3 2 2 5 7 8 8 6 8 10 9 10 11 12 13 12 12 11 10 10 10 10 9 9 9 8 6 5 4 4 3 4 4 6 7 7 7 6 6 4 4 4 3 4 3 3 2 3
3 3 0 0 4 5 4 4 6 5 6 10 12 10 11 12 13 13 12 10 10 10 10 9 10 9 9 9 6 5 3 2 2 4 4 5 7 7 6 7 5 5 4 4 4 4 4 3 2
2 2 2 2 3 2 2 0 5 8 8 13 14 13 13 13 12 11 11 11 11 10 9 9 9 8 9 8 7 7 4 3 3 3 3 4 5 6 7 7 8 7 6 6 6 5 3 3 3
3 3 1 2 5 5 7 3 5 7 10 15 14 14 13 12 12 12 11 10 9 9 8 8 8 8 8 8 8 7 5 3 2 1 2 3 3 4 6 7 7 7 6 7 7 6 6 4 4
3 2 5 6 6 5 4 2 4 5 9 14 14 14 13 13 12 11 10 9 9 9 8 7 8 8 8 8 8 8 7 5 3 2 1 1 1 2 3 4 5 5 5 6 7 7 7 6 5
8 5 4 6 6 2 2 3 2 5 8 9 12 13 13 11 12 11 12 11 11 11 9 8 8 8 8 8 8 7 7 6 5 4 2 2 2 1 2 2 3 3 4 5 5 6 6 7 6
4 5 5 3 2 1 3 3 3 4 7 8 9 9 11 12 12 12 11 10 10 10 10 9 8 8 8 8 8 7 7 5 4 5 4 3 2 2 2 2 2 2 3 3 4 3 4 4 5
3 4 2 6 3 2 2 2 3 5 10 10 11 11 11 12 12 13 12 10 10 10 10 9 9 8 8 8 8 7 7 6 5 5 4 3 3 2 3 3 3 2 3 3 3 2 3 3 3
4 3 5 5 3 2 2 3 5 10 12 12 12 11 12 11 11 12 11 10 10 9 8 9 9 8 8 8 7 6 7 6 5 5 5 4 4 3 3 3 3 3 3 3 3 2 2 3 2
5 5 6 5 4 4 1 2 3 6 8 9 10 10 10 10 10 9 9 9 8 9 9 9 9 9 9 9 8 8 8 7 7 6 6 4 4 3 3 3 3 3 3 2 2 2 2 3 2
4 3 3 4 2 2 2 3 4 4 6 6 8 9 9 8 8 7 8 8 8 9 9 9 9 9 9 8 8 8 8 8 8 8 7 6 5 4 3 3 3 3 3 2 2 2 2 2 1
Wind_Direction
312 113 105 66 53 49 40 330 292 50 53 36 80 95 98 95 159 219 106 133 133 141 149 153 151 150 147 144 141 138 135 133 131 131 131 132 132 132 132 132 131 131 131 132 133 133 132 128 126
156 129 71 59 75 63 339 310 337 56 126 134 75 76 76 69 76 106 131 140 138 142 142 148 153 152 151 151 149 146 143 139 136 135 135 133 132 132 131 132 132 131 131 131 132 135 133 132 128
144 95 78 66 79 125 286 302 277 82 116 65 67 57 73 95 130 145 155 144 141 143 140 157 157 156 156 157 155 153 149 145 143 141 138 136 135 134 133 133 131 129 129 130 131 134 137 136 131
100 51 53 64 47 299 283 299 175 133 78 51 85 65 59 75 149 149 142 147 147 146 145 164 161 162 163 163 162 160 157 154 152 148 144 140 138 135 133 131 127 125 126 128 129 133 138 138 132
63 70 55 42 355 320 313 318 197 142 89 56 81 80 40 7 113 133 144 154 153 151 155 169 166 168 170 170 171 169 167 164 159 156 153 151 146 139 134 130 123 121 121 122 122 127 135 135 127
57 63 69 27 335 327 343 344 78 98 94 85 90 86 31 87 129 145 151 154 156 158 162 171 174 176 177 178 178 177 177 174 169 167 164 164 159 149 142 135 126 121 112 108 106 107 118 121 114
88 80 93 57 341 352 352 346 52 85 106 143 120 97 79 181 167 146 146 144 151 163 167 177 179 181 184 185 185 185 185 182 180 179 179 182 176 167 159 152 146 139 122 109 99 95 98 100 98
103 94 80 43 18 339 329 354 33 50 79 107 109 136 186 197 155 131 126 135 153 169 180 185 185 183 185 189 193 192 192 188 187 188 190 193 194 186 179 170 172 173 166 145 104 91 87 82 77
78 73 91 189 177 297 336 14 12 23 64 47 43 165 193 141 135 127 127 147 173 191 197 197 198 196 191 192 201 197 197 195 193 194 197 194 191 185 185 185 194 204 204 194 152 89 80 70 52
69 97 201 204 191 222 16 33 12 26 31 15 13 24 87 124 141 156 170 185 197 205 205 203 205 206 200 205 204 198 195 191 188 182 190 174 166 182 191 206 213 218 220 224 225 258 49 64 50
82 144 222 264 188 354 48 55 33 37 23 356 344 25 76 86 75 45 275 240 224 222 215 208 207 210 205 214 203 196 191 184 184 183 182 169 167 180 190 181 234 244 236 41 8 28 50 59 53
85 88 84 350 56 42 42 59 52 42 19 0 37 65 63 58 43 26 9 349 329 295 248 228 207 207 211 211 213 200 194 192 192 190 182 171 174 185 189 190 200 202 174 183 196 214 289 306 263
55 57 48 36 72 69 64 57 68 35 29 45 55 54 49 46 36 30 26 21 12 358 329 280 226 210 209 208 215 208 205 206 200 192 191 184 186 193 194 197 198 200 192 197 207 216 240 260 266
49 81 53 36 55 66 72 49 47 21 30 46 51 51 47 42 33 28 22 17 11 3 350 331 283 232 215 214 215 214 208 206 199 200 199 195 195 194 196 202 205 204 198 200 203 210 228 258 268
78 88 51 29 25 83 85 47 27 16 39 46 41 41 39 35 32 27 16 9 3 355 350 344 329 296 241 227 222 221 212 205 207 207 203 202 200 199 198 203 210 208 194 193 194 205 212 248 251
44 58 44 12 14 30 79 62 15 18 42 43 33 29 30 26 25 18 11 4 357 355 353 350 344 337 301 258 233 224 215 207 211 207 204 207 207 203 198 206 218 204 182 180 185 188 203 229 224
33 54 40 14 17 42 76 77 26 25 43 40 29 22 21 18 15 9 6 2 355 352 349 349 348 344 328 297 258 234 221 212 212 206 206 207 208 204 201 210 217 197 184 185 194 179 183 200 204
355 70 65 46 35 68 82 78 42 31 40 36 23 16 13 12 3 357 359 357 350 349 347 347 348 347 339 317 282 244 227 218 211 208 207 202 204 202 200 208 211 196 193 194 188 185 184 190 184
92 108 99 69 88 82 88 79 48 33 34 27 18 10 3 357 350 351 353 352 349 351 350 345 346 345 344 336 319 279 246 229 216 210 203 196 193 193 194 204 198 194 206 210 192 173 181 179 142
70 86 59 65 92 102 106 82 50 39 33 20 11 3 355 348 349 348 348 349 351 347 345 342 343 341 342 332 312 285 276 249 223 210 197 188 183 184 191 196 193 188 196 197 183 175 167 167 160
49 98 340 283 80 85 120 67 17 2 14 11 9 1 355 350 345 340 342 342 343 344 343 340 337 338 339 334 323 308 290 273 219 203 201 192 186 181 178 179 176 177 182 189 184 185 178 175 184
324 326 295 244 116 54 15 43 358 334 344 360 357 353 349 344 341 339 340 339 338 336 334 333 332 336 340 340 338 329 308 284 266 245 208 187 186 176 174 172 170 172 177 183 187 184 183 173 184
289 323 3 100 115 69 24 65 329 339 350 346 344 344 341 339 337 335 335 333 331 331 331 331 333 338 341 344 343 338 327 305 299 287 211 188 180 176 172 172 168 173 180 185 186 185 189 189 190
337 64 61 53 69 55 344 41 349 347 332 329 336 339 337 335 334 332 333 335 333 335 335 337 340 341 344 347 348 349 346 347 356 5 59 101 115 128 151 167 164 173 184 189 192 190 191 195 195
33 66 45 25 34 24 331 63 333 310 326 328 331 334 337 339 341 339 340 343 342 338 339 344 346 344 345 350 353 353 354 5 18 17 41 67 72 80 125 146 160 175 185 190 192 193 196 195 194
29 83 120 141 152 311 12 28 294 308 332 336 334 336 344 346 345 345 345 345 342 344 348 350 349 346 348 354 354 358 3 11 17 23 32 42 47 53 74 110 135 147 157 170 176 182 185 181 187
53 58 119 118 109 75 15 348 337 342 347 348 347 349 351 347 346 347 349 351 350 354 356 355 355 355 355 357 357 3 6 13 18 22 32 37 38 51 68 84 93 105 121 129 137 145 158 157 172
82 98 72 80 104 76 5 2 335 331 335 337 340 341 338 339 343 346 350 352 354 359 357 1 4 1 3 7 9 10 9 12 16 24 27 32 37 47 62 76 86 88 93 108 119 127 128 133 142
22 48 74 80 93 121 60 321 298 301 312 320 322 325 326 332 336 339 341 344 350 359 5 9 10 10 12 11 12 16 14 15 22 27 24 23 33 45 57 65 75 82 89 100 109 120 126 122 129
93 78 110 116 94 105 130 275 286 301 306 313 316 321 324 327 332 335 338 345 356 1 2 6 8 10 10 9 14 18 17 20 24 24 22 25 32 36 46 60 68 64 64 70 87 102 106 124 155